Regional Weather Roundup
Issued by NWS

Home | Current Version | Previous Version | Text Only | Print | Product List | Glossary Off
Versions: 1 2 3 4 5 6 7 8 9 10 11 12 13 14 15 16 17 18 19 20 21 22 23 24 25 26 27 28 29 30 31 32 33 34 35 36 37 38 39 40 41 42 43 44 45 46 47 48 49 50

019
ASUS43 KOAX 220510
RWRNE

WEATHER ROUNDUP FOR NEBRASKA
NATIONAL WEATHER SERVICE OMAHA NE
1200 AM CDT SAT JUL 22 2017

NOTES: SATELLITE DATA IS BEING USED TO AUGMENT CLOUD COVER ABOVE
       12000 FEET.
       "FAIR" INDICATES FEW OR NO CLOUDS BELOW 12,000 FEET WITH NO
       SIGNIFICANT WEATHER AND/OR OBSTRUCTIONS TO VISIBILITY.


NEZ001>004-019>022-054>056-220600-
NEBRASKA PANHANDLE

CITY           SKY/WX    TMP DP  RH WIND       PRES   REMARKS
SCOTTSBLUFF    CLOUDY    76  50  40 W7        30.05R
ALLIANCE       MOCLDY    68  59  73 W10       30.01R
CHADRON        CLOUDY    72  53  51 W3        29.97R
GORDON         FAIR      72  58  62 CALM      29.98S
KIMBALL        CLOUDY    69  54  59 SW12      30.17R
SIDNEY         CLOUDY    76  51  41 W22G29    30.12S
$$

NEZ057>060-069>072-079>082-220600-
SOUTHWEST NEBRASKA

CITY           SKY/WX    TMP DP  RH WIND       PRES   REMARKS
NORTH PLATTE   CLEAR     73  60  63 CALM      29.89R
IMPERIAL       CLOUDY    82  46  28 W17G24    29.98R
LEXINGTON      PTCLDY    83  72  69 S9G20     29.86R
MCCOOK         CLOUDY    84  60  44 NW6       29.87F
OGALLALA       CLOUDY    79  53  40 W6        29.95S
$$

NEZ005>010-023>029-035>040-094-220600-
NORTH CENTRAL NEBRASKA

CITY           SKY/WX    TMP DP  RH WIND       PRES   REMARKS
VALENTINE      CLEAR     78  55  44 NW9       29.86F
AINSWORTH      PTCLDY    75  71  87 W5        29.87F
BROKEN BOW     CLEAR     70  65  84 CALM      29.84F
O`NEILL        CLEAR     75  70  85 CALM      29.80S
ORD            PTCLDY    73  67  81 NW5       29.80R
THEDFORD       CLEAR     79  71  76 CALM      29.91S
$$

NEZ041-046>049-061>064-073>077-083>087-220600-
SOUTH CENTRAL NEBRASKA

CITY           SKY/WX    TMP DP  RH WIND       PRES   REMARKS
GRAND ISLAND   CLOUDY    76  73  91 W7        29.79S
AURORA         CLEAR     78  76  95 N5        29.79R
HASTINGS       CLOUDY    82  75  79 CALM      29.81R
HEBRON         CLEAR     85  64  49 S12       29.77R
HOLDREGE       MOCLDY    83  66  56 SW6       29.85S
KEARNEY        CLOUDY    82  71  69 NW3       29.83R
YORK           CLEAR     79  77  94 CALM      29.77R
$$

NEZ011>018-030>034-042>045-220600-
NORTHEAST NEBRASKA

CITY           SKY/WX    TMP DP  RH WIND       PRES   REMARKS
NORFOLK        CLOUDY    76  68  76 W3        29.76R
ALBION         PTCLDY    72  70  95 NW5       29.78S
BLAIR          PTCLDY    85  74  69 S5        29.73R HX  93
COLUMBUS       CLOUDY    80  74  81 SW3       29.75R
FREMONT        CLOUDY    84  77  79 NW5       29.73S HX  95
TEKAMAH        CLOUDY    82  79  90 NW6       29.71R HX  92
WAYNE          CLOUDY    80  79  98 CALM      29.75F
$$

NEZ050>053-065>068-078-088>093-220600-
SOUTHEAST NEBRASKA

CITY           SKY/WX    TMP DP  RH WIND       PRES   REMARKS
LINCOLN        CLEAR     84  70  62 S15       29.73F
OMAHA EPPLEY   MOCLDY    90  71  53 S7        29.72R HX  96
BEATRICE       CLEAR     87  67  51 S13       29.76R HX  90
NEBRASKA CITY  CLEAR     84  71  65 S14       29.75R
PLATTSMOUTH    CLEAR     83  68  59 S15       29.73S
$$

NEZ044-045-051>053-067-220600-
OMAHA AREA

CITY           SKY/WX    TMP DP  RH WIND       PRES   REMARKS
OMAHA EPPLEY   MOCLDY    90  71  53 S7        29.72R HX  96
BLAIR          PTCLDY    85  74  69 S5        29.73R HX  93
FREMONT        CLOUDY    84  77  79 NW5       29.73S HX  95
MILLARD        CLOUDY    91  72  53 CALM      29.72R HX  98
OFFUTT AFB     CLOUDY    86  69  56 CALM      29.71R HX  90
PLATTSMOUTH    CLEAR     83  68  59 S15       29.73S
WAHOO          FAIR      80  78  93 CALM      29.72R
$$




USA.gov is the U.S. government's official web portal to all federal, state and local government web resources and services.